SCP
0 0 0 0 0 0 0 0 0 0 0 0 0 0 0 0 0 0 0 0 0 0 0 0 1 1 1 0 0 0 0 0 0 0 0 0 -0 0 0 0 0 0 0
0 0 0 0 0 0 0 0 0 0 0 0 0 0 0 0 0 0 0 0 0 0 0 0 0 0 1 1 1 0 0 0 0 0 0 0 -0 -0 0 0 0 0 0
0 0 0 0 0 0 0 0 0 0 0 0 0 0 0 0 0 0 0 0 0 0 0 0 0 0 0 0 0 0 0 0 0 0 0 0 -0 -0 0 0 0 0 0
0 0 0 0 0 0 0 0 0 0 0 0 0 0 0 0 0 0 0 0 0 0 0 0 0 0 0 1 1 0 1 0 0 0 0 0 0 0 -0 -0 -0 0 0
0 0 0 0 0 0 0 0 0 0 0 0 0 0 0 0 0 0 0 0 0 0 0 0 0 0 0 0 0 0 0 0 0 0 0 0 0 0 0 -0 0 0 0
0 0 0 0 0 0 0 0 0 0 0 0 0 0 0 0 0 0 0 0 0 0 0 0 0 0 0 0 0 0 0 0 0 0 0 0 0 0 0 -0 -0 0 0
0 0 0 0 0 0 0 0 0 0 0 0 0 0 0 0 0 0 0 0 0 0 0 0 0 0 0 0 0 0 0 0 0 0 1 0 0 0 0 0 0 0 0
0 0 0 0 0 0 0 0 0 0 0 0 0 0 0 0 0 0 0 0 0 0 0 0 0 0 0 0 0 0 0 0 0 1 0 0 1 0 0 0 0 0 0
1 0 0 0 1 1 1 0 0 0 0 0 0 0 0 0 0 0 0 0 0 0 0 0 0 0 0 0 0 0 0 0 0 0 1 1 1 1 0 0 0 0 0
1 1 1 1 1 1 1 1 0 0 0 0 0 0 0 0 0 0 0 0 0 0 0 0 0 0 0 0 0 0 0 0 0 0 0 0 1 1 1 1 1 0 1
1 1 2 1 1 1 1 1 0 0 0 0 0 0 0 0 0 0 0 0 0 0 0 0 0 0 0 0 0 0 0 0 0 0 0 0 0 0 0 1 1 0 0
1 1 1 1 1 1 1 1 1 0 0 0 0 0 0 0 0 0 0 0 0 0 0 0 0 0 0 0 0 0 0 0 0 0 0 0 0 0 0 0 0 0 0
0 0 0 0 1 0 0 0 0 0 0 0 0 0 0 0 0 0 0 0 0 0 0 0 0 0 0 0 0 0 0 0 0 0 0 0 -0 0 0 0 0 0 0
0 0 0 0 0 0 0 0 0 0 0 0 0 0 0 0 0 0 0 0 0 0 0 0 0 0 0 0 0 0 0 0 0 0 0 0 0 0 0 0 0 0 0
0 0 0 0 0 0 0 0 0 0 0 0 0 0 0 0 0 0 0 0 0 0 0 0 0 0 0 0 0 0 0 0 0 0 0 0 0 0 0 0 0 0 0
0 0 0 0 0 0 0 0 0 0 0 0 0 0 0 0 0 0 0 0 0 0 0 0 0 0 0 0 0 0 0 0 0 0 0 0 0 0 0 0 0 0 0
0 0 0 0 0 0 0 0 0 0 0 0 0 0 0 0 0 0 0 0 0 0 0 0 0 0 0 0 0 0 0 0 0 0 0 0 0 0 0 0 0 0 0
0 0 0 0 0 0 0 0 0 0 0 0 0 0 0 0 0 0 0 0 0 0 0 0 0 0 0 0 0 0 0 0 0 0 0 0 0 0 0 0 0 0 0
0 0 0 0 0 0 0 0 0 0 0 0 0 0 0 0 0 0 0 0 0 0 0 0 0 0 0 0 0 0 0 0 0 0 0 0 0 0 0 0 0 0 0
0 0 0 0 0 0 0 0 0 0 0 0 0 0 0 0 0 0 0 0 0 0 0 0 0 0 0 0 0 0 0 0 0 0 0 0 0 0 0 0 0 0 0
0 0 0 0 0 0 0 0 0 0 0 0 0 0 0 0 0 0 0 0 0 0 0 0 0 0 0 0 0 0 0 0 0 0 0 0 0 0 0 0 0 0 0
0 0 0 0 0 0 0 0 0 0 0 0 0 0 0 0 0 0 0 0 0 0 0 0 0 0 0 0 0 0 0 0 0 0 0 0 0 0 0 0 0 0 0
0 0 0 0 0 0 0 0 0 0 0 0 0 0 0 0 0 0 0 0 0 0 0 0 0 0 0 0 0 0 0 0 0 0 0 0 0 0 0 0 0 0 0
0 0 0 0 0 0 0 0 0 0 0 0 0 0 0 0 0 0 0 0 0 0 0 0 0 0 0 0 0 0 0 0 0 0 0 0 0 0 0 0 0 0 0
0 0 0 0 0 0 0 0 0 0 0 0 0 0 0 0 0 0 0 0 0 0 0 0 0 0 0 0 0 0 0 0 0 0 0 0 0 0 0 0 0 0 0
0 0 0 0 0 0 0 0 0 0 0 0 0 0 0 0 0 0 0 0 0 0 0 0 0 0 0 0 0 0 0 0 0 0 0 0 0 0 0 0 0 0 0
Wind_Speed_500mb
32 32 31 30 27 25 19 17 16 14 12 14 18 16 13 11 11 10 13 16 17 19 19 18 17 19 26 30 30 30 32 32 32 31 30 32 32 31 31 32 22 24 22
32 33 32 32 29 27 26 23 18 18 17 21 21 25 22 16 13 13 15 14 16 19 23 24 23 26 27 31 31 31 32 34 34 34 34 34 38 35 34 41 31 26 27
31 32 33 33 28 26 26 29 27 26 25 26 30 22 21 20 22 23 19 15 19 26 30 28 30 29 28 30 33 34 34 34 35 37 36 37 38 40 38 40 43 30 31
32 31 34 32 26 27 28 30 33 35 33 33 32 35 25 28 27 25 17 19 26 31 34 38 35 28 26 27 31 33 34 33 33 33 33 36 37 38 47 40 41 39 33
37 34 32 31 28 30 33 32 34 38 38 39 43 41 42 38 32 29 26 27 30 35 37 34 31 30 27 25 27 34 37 37 39 40 40 41 37 38 41 43 41 42 41
34 36 33 31 29 36 37 30 33 35 41 43 46 47 43 32 36 36 30 31 33 32 32 32 32 29 29 29 23 29 31 30 29 27 27 27 30 33 35 39 40 41 45
36 36 36 37 32 39 44 35 37 44 48 49 54 50 40 41 42 38 36 34 32 28 29 27 29 29 27 22 22 25 24 20 24 25 28 28 25 28 30 33 33 35 41
37 42 35 37 36 42 49 43 42 47 49 52 51 50 38 38 40 37 33 31 28 27 26 21 22 26 27 23 18 23 25 22 22 22 22 23 23 21 23 27 28 32 38
37 39 43 34 40 39 49 49 47 51 52 53 51 48 14 15 17 29 31 31 31 29 24 21 20 20 22 22 17 17 19 22 24 22 21 21 24 32 27 31 32 32 32
26 21 26 30 32 41 51 49 47 53 54 58 48 53 44 40 42 27 30 34 34 28 27 22 19 19 23 25 29 29 24 24 26 27 26 25 20 20 24 26 28 28 29
34 36 42 38 41 51 62 59 52 53 53 51 54 59 44 52 67 54 45 40 40 30 27 26 22 23 26 26 28 33 29 24 26 29 27 26 27 24 23 22 28 34 36
47 49 48 52 53 63 68 67 57 56 56 52 51 63 58 57 60 58 57 56 49 41 34 31 30 25 24 24 26 32 34 33 31 30 30 32 37 39 37 36 35 34 33
57 50 55 52 57 66 59 59 59 58 61 59 57 63 72 67 65 63 58 55 51 44 40 36 34 33 32 31 33 38 39 41 40 42 39 42 47 45 34 36 40 40 44
49 45 54 54 52 50 52 56 58 61 64 59 67 65 71 63 62 73 63 57 53 50 49 43 39 38 41 42 41 42 44 47 50 50 48 48 47 49 42 41 43 41 45
23 24 32 36 40 46 57 64 61 66 68 68 53 48 47 47 49 54 57 52 50 51 54 50 51 48 47 49 47 46 49 50 53 59 59 57 52 50 51 49 46 50 46
20 24 29 31 34 36 37 37 39 44 55 47 42 43 46 47 47 49 49 49 48 45 58 55 65 64 56 58 59 58 55 49 57 63 60 59 60 53 53 56 54 53 45
21 25 29 32 35 36 36 35 35 34 42 43 42 42 45 49 53 56 58 54 54 56 66 87 91 81 73 70 70 70 66 62 62 60 61 62 62 60 57 56 56 58 40
25 27 30 34 36 37 38 39 39 40 40 41 46 53 55 54 51 51 51 69 70 68 62 81 83 78 71 67 69 70 73 70 65 64 65 64 64 61 57 55 59 50 42
32 34 37 38 40 42 43 43 42 43 43 42 42 44 44 46 46 46 46 49 48 51 53 61 68 65 60 54 60 68 74 76 72 67 64 61 58 60 62 64 55 50 47
44 45 47 48 49 50 52 53 55 54 52 51 51 51 51 52 55 57 59 61 61 63 64 69 76 79 76 72 69 68 76 76 74 70 70 67 67 68 63 62 53 53 55
54 57 61 62 63 66 67 71 71 72 71 71 68 67 68 67 68 69 69 71 68 68 67 69 76 77 76 74 75 72 77 74 72 66 70 60 55 53 52 50 50 58 63
61 63 65 68 68 67 68 69 71 76 79 80 82 81 79 78 79 80 79 78 76 75 76 74 77 77 78 77 76 72 67 68 62 59 69 73 69 68 58 59 47 50 57
58 57 54 53 49 47 49 54 57 61 62 63 66 68 70 71 72 73 74 75 78 78 80 82 89 90 90 87 86 84 82 76 77 82 72 78 77 73 78 74 74 63 58
44 42 40 41 44 43 42 43 42 46 49 50 48 48 51 51 47 49 52 56 57 58 60 63 68 71 75 75 73 69 71 71 72 71 64 72 68 76 77 70 58 57 62
42 42 42 41 44 43 42 41 42 46 47 47 47 46 45 48 46 41 47 53 57 59 57 57 56 53 55 60 65 65 69 65 69 52 52 60 58 57 51 51 53 62 68
39 35 35 40 38 37 39 41 41 45 49 49 49 51 49 49 48 43 44 50 56 59 60 53 52 52 48 49 48 51 54 59 57 46 58 68 71 62 44 45 46 42 38
Wind_Direction_500mb
232 232 229 232 237 237 236 228 233 232 250 258 253 246 221 226 230 231 267 269 271 277 286 293 293 298 308 309 308 307 304 303 295 288 284 281 277 273 268 269 272 285 270
236 235 233 236 239 240 235 240 255 255 253 260 267 267 244 250 247 254 270 270 286 301 304 303 301 294 293 291 295 300 301 296 296 294 279 274 272 269 267 270 262 274 276
242 241 239 238 239 243 242 242 254 264 271 273 272 270 260 274 262 267 275 280 294 306 309 310 311 303 298 291 288 286 287 287 285 283 283 275 277 274 265 265 267 258 273
239 241 246 242 242 242 247 255 259 263 272 276 276 261 268 271 276 261 264 277 291 304 308 314 314 312 306 294 289 280 277 281 280 276 274 270 273 277 269 263 263 261 260
240 239 241 243 237 245 249 257 267 273 273 274 277 276 273 274 254 258 263 273 282 294 304 307 316 326 322 318 296 279 283 286 281 267 277 266 266 274 272 261 259 257 258
234 239 241 241 243 247 251 263 276 286 283 279 281 285 280 257 257 259 266 271 279 291 296 301 315 324 327 330 312 304 300 306 311 286 279 270 274 275 270 264 257 258 256
244 255 267 263 262 269 264 262 274 280 283 285 279 284 275 255 262 260 259 267 275 277 285 303 308 321 333 331 321 317 325 313 329 301 294 283 275 278 267 262 261 260 256
267 266 269 278 274 281 277 265 273 279 285 285 277 274 273 260 263 262 254 257 262 275 285 290 298 305 321 331 324 318 322 330 325 330 316 294 280 280 284 279 271 261 258
275 276 269 273 279 285 293 283 278 278 284 287 277 261 244 257 275 265 246 250 259 270 283 285 285 286 300 315 321 318 327 334 333 342 340 329 308 293 294 285 280 274 269
285 300 289 282 277 280 273 275 273 277 282 283 272 256 249 271 267 271 261 256 260 272 280 281 272 268 281 294 308 314 313 309 308 315 323 327 327 314 296 284 280 278 277
276 284 290 280 276 274 277 278 271 273 275 281 285 269 267 262 263 257 267 266 263 261 262 264 261 258 270 277 284 300 315 313 310 310 311 312 312 313 304 295 281 275 272
280 278 282 283 277 267 270 273 272 272 268 266 263 269 262 265 263 264 264 268 265 262 255 255 260 263 264 265 272 284 300 305 308 306 306 314 321 312 298 288 286 281 278
283 277 278 280 272 271 264 267 269 272 269 267 272 266 264 267 264 273 264 263 256 252 253 249 254 265 273 271 267 277 287 294 295 300 301 304 317 326 305 300 291 289 281
288 275 273 275 275 269 266 265 266 267 266 269 272 271 267 265 262 259 259 257 254 252 253 254 256 257 264 272 272 266 271 280 286 293 294 296 298 315 304 304 308 304 287
298 301 293 293 291 284 276 269 269 266 271 273 272 263 258 261 253 256 253 253 256 259 265 264 265 264 266 270 271 272 269 272 271 283 290 289 291 301 299 297 301 312 303
318 318 316 319 321 316 310 304 294 274 263 260 260 259 258 255 252 250 250 251 254 261 272 272 275 273 271 272 271 271 273 268 267 273 278 283 286 291 289 293 294 307 301
319 320 318 315 311 310 308 307 304 294 278 274 267 260 255 253 253 253 251 250 255 262 270 277 273 272 271 270 269 272 273 271 271 270 271 275 281 285 285 286 288 301 297
315 309 305 307 309 307 306 304 301 296 290 284 276 270 269 267 266 267 267 261 261 270 263 262 268 272 270 268 270 270 271 274 273 271 274 273 276 278 281 278 286 284 285
326 321 314 308 306 305 303 301 299 294 289 286 284 280 278 277 276 276 268 269 265 265 266 268 274 276 278 275 276 273 272 272 273 274 274 276 273 274 277 279 275 267 268
321 315 312 311 307 302 298 296 293 290 287 284 282 280 279 276 277 275 275 276 275 274 272 272 272 275 276 277 274 273 271 273 275 273 273 273 274 274 272 271 267 258 260
315 313 309 304 301 300 298 295 292 290 287 284 280 277 277 276 277 278 279 280 279 277 274 272 271 272 273 272 270 274 274 276 273 272 273 269 269 267 264 264 271 259 261
313 310 307 305 303 301 298 295 292 289 287 285 284 281 278 275 273 272 271 271 272 271 270 270 270 270 271 271 272 273 273 273 274 270 269 268 268 270 265 263 271 279 266
316 314 310 308 307 305 300 296 292 292 291 290 290 291 288 285 283 280 277 274 270 268 266 266 265 264 268 271 273 272 271 267 270 274 273 271 263 258 261 264 269 272 265
333 334 332 329 325 324 321 319 312 306 303 300 297 293 292 290 288 285 283 282 279 273 267 262 261 261 263 266 265 267 269 271 273 273 271 269 267 264 265 266 261 257 265
341 339 338 333 331 331 331 327 318 309 305 304 303 299 294 288 283 277 276 278 278 275 270 266 266 265 262 260 259 262 260 263 265 274 272 265 265 267 268 261 258 257 263
346 350 354 354 352 358 358 346 335 328 323 317 309 301 296 294 293 284 277 282 286 287 286 274 266 265 267 267 262 257 260 260 263 271 270 258 260 260 265 271 262 260 256
Wind_Speed_850mb
32 32 31 30 27 25 19 17 16 14 12 14 18 16 13 11 11 10 13 16 17 19 19 18 17 19 26 30 30 30 32 32 32 31 30 32 32 31 31 32 22 24 22
32 33 32 32 29 27 26 23 18 18 17 21 21 25 22 16 13 13 15 14 16 19 23 24 23 26 27 31 31 31 32 34 34 34 34 34 38 35 34 41 31 26 27
31 32 33 33 28 26 26 29 27 26 25 26 30 22 21 20 22 23 19 15 19 26 30 28 30 29 28 30 33 34 34 34 35 37 36 37 38 40 38 40 43 30 31
32 31 34 32 26 27 28 30 33 35 33 33 32 35 25 28 27 25 17 19 26 31 34 38 35 28 26 27 31 33 34 33 33 33 33 36 37 38 47 40 41 39 33
37 34 32 31 28 30 33 32 34 38 38 39 43 41 42 38 32 29 26 27 30 35 37 34 31 30 27 25 27 34 37 37 39 40 40 41 37 38 41 43 41 42 41
34 36 33 31 29 36 37 30 33 35 41 43 46 47 43 32 36 36 30 31 33 32 32 32 32 29 29 29 23 29 31 30 29 27 27 27 30 33 35 39 40 41 45
36 36 36 37 32 39 44 35 37 44 48 49 54 50 40 41 42 38 36 34 32 28 29 27 29 29 27 22 22 25 24 20 24 25 28 28 25 28 30 33 33 35 41
37 42 35 37 36 42 49 43 42 47 49 52 51 50 38 38 40 37 33 31 28 27 26 21 22 26 27 23 18 23 25 22 22 22 22 23 23 21 23 27 28 32 38
37 39 43 34 40 39 49 49 47 51 52 53 51 48 14 15 17 29 31 31 31 29 24 21 20 20 22 22 17 17 19 22 24 22 21 21 24 32 27 31 32 32 32
26 21 26 30 32 41 51 49 47 53 54 58 48 53 44 40 42 27 30 34 34 28 27 22 19 19 23 25 29 29 24 24 26 27 26 25 20 20 24 26 28 28 29
34 36 42 38 41 51 62 59 52 53 53 51 54 59 44 52 67 54 45 40 40 30 27 26 22 23 26 26 28 33 29 24 26 29 27 26 27 24 23 22 28 34 36
47 49 48 52 53 63 68 67 57 56 56 52 51 63 58 57 60 58 57 56 49 41 34 31 30 25 24 24 26 32 34 33 31 30 30 32 37 39 37 36 35 34 33
57 50 55 52 57 66 59 59 59 58 61 59 57 63 72 67 65 63 58 55 51 44 40 36 34 33 32 31 33 38 39 41 40 42 39 42 47 45 34 36 40 40 44
49 45 54 54 52 50 52 56 58 61 64 59 67 65 71 63 62 73 63 57 53 50 49 43 39 38 41 42 41 42 44 47 50 50 48 48 47 49 42 41 43 41 45
23 24 32 36 40 46 57 64 61 66 68 68 53 48 47 47 49 54 57 52 50 51 54 50 51 48 47 49 47 46 49 50 53 59 59 57 52 50 51 49 46 50 46
20 24 29 31 34 36 37 37 39 44 55 47 42 43 46 47 47 49 49 49 48 45 58 55 65 64 56 58 59 58 55 49 57 63 60 59 60 53 53 56 54 53 45
21 25 29 32 35 36 36 35 35 34 42 43 42 42 45 49 53 56 58 54 54 56 66 87 91 81 73 70 70 70 66 62 62 60 61 62 62 60 57 56 56 58 40
25 27 30 34 36 37 38 39 39 40 40 41 46 53 55 54 51 51 51 69 70 68 62 81 83 78 71 67 69 70 73 70 65 64 65 64 64 61 57 55 59 50 42
32 34 37 38 40 42 43 43 42 43 43 42 42 44 44 46 46 46 46 49 48 51 53 61 68 65 60 54 60 68 74 76 72 67 64 61 58 60 62 64 55 50 47
44 45 47 48 49 50 52 53 55 54 52 51 51 51 51 52 55 57 59 61 61 63 64 69 76 79 76 72 69 68 76 76 74 70 70 67 67 68 63 62 53 53 55
54 57 61 62 63 66 67 71 71 72 71 71 68 67 68 67 68 69 69 71 68 68 67 69 76 77 76 74 75 72 77 74 72 66 70 60 55 53 52 50 50 58 63
61 63 65 68 68 67 68 69 71 76 79 80 82 81 79 78 79 80 79 78 76 75 76 74 77 77 78 77 76 72 67 68 62 59 69 73 69 68 58 59 47 50 57
58 57 54 53 49 47 49 54 57 61 62 63 66 68 70 71 72 73 74 75 78 78 80 82 89 90 90 87 86 84 82 76 77 82 72 78 77 73 78 74 74 63 58
44 42 40 41 44 43 42 43 42 46 49 50 48 48 51 51 47 49 52 56 57 58 60 63 68 71 75 75 73 69 71 71 72 71 64 72 68 76 77 70 58 57 62
42 42 42 41 44 43 42 41 42 46 47 47 47 46 45 48 46 41 47 53 57 59 57 57 56 53 55 60 65 65 69 65 69 52 52 60 58 57 51 51 53 62 68
39 35 35 40 38 37 39 41 41 45 49 49 49 51 49 49 48 43 44 50 56 59 60 53 52 52 48 49 48 51 54 59 57 46 58 68 71 62 44 45 46 42 38
Wind_Direction_850mb
232 232 229 232 237 237 236 228 233 232 250 258 253 246 221 226 230 231 267 269 271 277 286 293 293 298 308 309 308 307 304 303 295 288 284 281 277 273 268 269 272 285 270
236 235 233 236 239 240 235 240 255 255 253 260 267 267 244 250 247 254 270 270 286 301 304 303 301 294 293 291 295 300 301 296 296 294 279 274 272 269 267 270 262 274 276
242 241 239 238 239 243 242 242 254 264 271 273 272 270 260 274 262 267 275 280 294 306 309 310 311 303 298 291 288 286 287 287 285 283 283 275 277 274 265 265 267 258 273
239 241 246 242 242 242 247 255 259 263 272 276 276 261 268 271 276 261 264 277 291 304 308 314 314 312 306 294 289 280 277 281 280 276 274 270 273 277 269 263 263 261 260
240 239 241 243 237 245 249 257 267 273 273 274 277 276 273 274 254 258 263 273 282 294 304 307 316 326 322 318 296 279 283 286 281 267 277 266 266 274 272 261 259 257 258
234 239 241 241 243 247 251 263 276 286 283 279 281 285 280 257 257 259 266 271 279 291 296 301 315 324 327 330 312 304 300 306 311 286 279 270 274 275 270 264 257 258 256
244 255 267 263 262 269 264 262 274 280 283 285 279 284 275 255 262 260 259 267 275 277 285 303 308 321 333 331 321 317 325 313 329 301 294 283 275 278 267 262 261 260 256
267 266 269 278 274 281 277 265 273 279 285 285 277 274 273 260 263 262 254 257 262 275 285 290 298 305 321 331 324 318 322 330 325 330 316 294 280 280 284 279 271 261 258
275 276 269 273 279 285 293 283 278 278 284 287 277 261 244 257 275 265 246 250 259 270 283 285 285 286 300 315 321 318 327 334 333 342 340 329 308 293 294 285 280 274 269
285 300 289 282 277 280 273 275 273 277 282 283 272 256 249 271 267 271 261 256 260 272 280 281 272 268 281 294 308 314 313 309 308 315 323 327 327 314 296 284 280 278 277
276 284 290 280 276 274 277 278 271 273 275 281 285 269 267 262 263 257 267 266 263 261 262 264 261 258 270 277 284 300 315 313 310 310 311 312 312 313 304 295 281 275 272
280 278 282 283 277 267 270 273 272 272 268 266 263 269 262 265 263 264 264 268 265 262 255 255 260 263 264 265 272 284 300 305 308 306 306 314 321 312 298 288 286 281 278
283 277 278 280 272 271 264 267 269 272 269 267 272 266 264 267 264 273 264 263 256 252 253 249 254 265 273 271 267 277 287 294 295 300 301 304 317 326 305 300 291 289 281
288 275 273 275 275 269 266 265 266 267 266 269 272 271 267 265 262 259 259 257 254 252 253 254 256 257 264 272 272 266 271 280 286 293 294 296 298 315 304 304 308 304 287
298 301 293 293 291 284 276 269 269 266 271 273 272 263 258 261 253 256 253 253 256 259 265 264 265 264 266 270 271 272 269 272 271 283 290 289 291 301 299 297 301 312 303
318 318 316 319 321 316 310 304 294 274 263 260 260 259 258 255 252 250 250 251 254 261 272 272 275 273 271 272 271 271 273 268 267 273 278 283 286 291 289 293 294 307 301
319 320 318 315 311 310 308 307 304 294 278 274 267 260 255 253 253 253 251 250 255 262 270 277 273 272 271 270 269 272 273 271 271 270 271 275 281 285 285 286 288 301 297
315 309 305 307 309 307 306 304 301 296 290 284 276 270 269 267 266 267 267 261 261 270 263 262 268 272 270 268 270 270 271 274 273 271 274 273 276 278 281 278 286 284 285
326 321 314 308 306 305 303 301 299 294 289 286 284 280 278 277 276 276 268 269 265 265 266 268 274 276 278 275 276 273 272 272 273 274 274 276 273 274 277 279 275 267 268
321 315 312 311 307 302 298 296 293 290 287 284 282 280 279 276 277 275 275 276 275 274 272 272 272 275 276 277 274 273 271 273 275 273 273 273 274 274 272 271 267 258 260
315 313 309 304 301 300 298 295 292 290 287 284 280 277 277 276 277 278 279 280 279 277 274 272 271 272 273 272 270 274 274 276 273 272 273 269 269 267 264 264 271 259 261
313 310 307 305 303 301 298 295 292 289 287 285 284 281 278 275 273 272 271 271 272 271 270 270 270 270 271 271 272 273 273 273 274 270 269 268 268 270 265 263 271 279 266
316 314 310 308 307 305 300 296 292 292 291 290 290 291 288 285 283 280 277 274 270 268 266 266 265 264 268 271 273 272 271 267 270 274 273 271 263 258 261 264 269 272 265
333 334 332 329 325 324 321 319 312 306 303 300 297 293 292 290 288 285 283 282 279 273 267 262 261 261 263 266 265 267 269 271 273 273 271 269 267 264 265 266 261 257 265
341 339 338 333 331 331 331 327 318 309 305 304 303 299 294 288 283 277 276 278 278 275 270 266 266 265 262 260 259 262 260 263 265 274 272 265 265 267 268 261 258 257 263
346 350 354 354 352 358 358 346 335 328 323 317 309 301 296 294 293 284 277 282 286 287 286 274 266 265 267 267 262 257 260 260 263 271 270 258 260 260 265 271 262 260 256